Time,TemperatureF,DewpointF,PressureIn,WindDirection,WindDirectionDegrees,WindSpeedMPH,WindSpeedGustMPH,Humidity,HourlyPrecipIn,Conditions,Clouds,dailyrainin,SoftwareType,DateUTC
2013-10-22 00:01:00,45.4,43.0,0.00,North,0,0.0,0.0,91,0.00,,,0.00,WUHU216CR1000,2013-10-22 07:01:00,
2013-10-22 00:06:00,44.8,42.1,0.00,East,93,0.3,1.5,90,0.00,,,0.00,WUHU216CR1000,2013-10-22 07:06:00,
2013-10-22 00:11:00,44.8,42.1,0.00,East,93,0.3,1.5,90,0.00,,,0.00,WUHU216CR1000,2013-10-22 07:11:00,
2013-10-22 00:16:00,44.8,42.1,0.00,East,93,0.3,1.5,90,0.00,,,0.00,WUHU216CR1000,2013-10-22 07:16:00,
2013-10-22 00:21:00,45.1,43.4,0.00,East,89,0.8,2.1,94,0.00,,,0.00,WUHU216CR1000,2013-10-22 07:21:00,
2013-10-22 00:26:00,45.1,43.4,0.00,East,89,0.8,2.1,94,0.00,,,0.00,WUHU216CR1000,2013-10-22 07:26:00,
2013-10-22 00:31:00,45.1,43.4,0.00,East,89,0.8,2.1,94,0.00,,,0.00,WUHU216CR1000,2013-10-22 07:31:00,
2013-10-22 00:36:00,45.9,44.8,0.00,East,98,1.5,2.4,96,0.00,,,0.00,WUHU216CR1000,2013-10-22 07:36:00,
2013-10-22 00:41:00,45.9,44.8,0.00,East,98,1.5,2.4,96,0.00,,,0.00,WUHU216CR1000,2013-10-22 07:41:00,
2013-10-22 00:46:00,45.9,44.8,0.00,East,98,1.5,2.4,96,0.00,,,0.00,WUHU216CR1000,2013-10-22 07:46:00,
2013-10-22 00:51:00,45.1,44.1,0.00,East,84,0.5,2.4,96,0.00,,,0.00,WUHU216CR1000,2013-10-22 07:51:00,
2013-10-22 00:56:00,45.1,44.1,0.00,East,84,0.5,1.8,96,0.00,,,0.00,WUHU216CR1000,2013-10-22 07:56:00,
2013-10-22 01:01:00,45.1,44.1,0.00,East,84,0.5,1.8,96,0.00,,,0.00,WUHU216CR1000,2013-10-22 08:01:00,
2013-10-22 01:06:00,44.5,43.6,0.00,East,83,0.4,1.8,97,0.00,,,0.00,WUHU216CR1000,2013-10-22 08:06:00,
2013-10-22 01:11:00,44.5,43.6,0.00,East,83,0.4,1.5,97,0.00,,,0.00,WUHU216CR1000,2013-10-22 08:11:00,
2013-10-22 01:16:00,44.5,43.6,0.00,East,83,0.4,1.5,97,0.00,,,0.00,WUHU216CR1000,2013-10-22 08:16:00,
2013-10-22 01:21:00,44.1,43.3,0.00,East,89,1.4,3.6,97,0.00,,,0.00,WUHU216CR1000,2013-10-22 08:21:00,
2013-10-22 01:26:00,44.1,43.3,0.00,East,89,1.4,3.6,97,0.00,,,0.00,WUHU216CR1000,2013-10-22 08:26:00,
2013-10-22 01:31:00,44.1,43.3,0.00,East,89,1.4,3.6,97,0.00,,,0.00,WUHU216CR1000,2013-10-22 08:31:00,
2013-10-22 01:36:00,43.9,43.3,0.00,East,91,2.2,4.5,98,0.00,,,0.00,WUHU216CR1000,2013-10-22 08:36:00,
2013-10-22 01:41:00,43.9,43.3,0.00,East,91,2.2,4.5,98,0.00,,,0.00,WUHU216CR1000,2013-10-22 08:41:00,
2013-10-22 01:46:00,43.9,43.3,0.00,East,91,2.2,4.5,98,0.00,,,0.00,WUHU216CR1000,2013-10-22 08:46:00,
2013-10-22 01:51:00,44.3,43.9,0.00,East,89,1.8,4.5,98,0.00,,,0.00,WUHU216CR1000,2013-10-22 08:51:00,
2013-10-22 01:56:00,44.3,43.9,0.00,East,89,1.8,3.9,98,0.00,,,0.00,WUHU216CR1000,2013-10-22 08:56:00,
2013-10-22 02:01:00,44.3,43.9,0.00,East,89,1.8,3.9,98,0.00,,,0.00,WUHU216CR1000,2013-10-22 09:01:00,
2013-10-22 02:06:00,44.9,44.5,0.00,East,90,1.2,3.9,99,0.00,,,0.00,WUHU216CR1000,2013-10-22 09:06:00,
2013-10-22 02:11:00,44.9,44.5,0.00,East,90,1.2,3.3,99,0.00,,,0.00,WUHU216CR1000,2013-10-22 09:11:00,
2013-10-22 02:16:00,44.9,44.5,0.00,East,90,1.2,3.3,99,0.00,,,0.00,WUHU216CR1000,2013-10-22 09:16:00,
2013-10-22 02:21:00,45.1,44.8,0.00,ENE,73,0.8,3.3,99,0.00,,,0.00,WUHU216CR1000,2013-10-22 09:21:00,
2013-10-22 02:26:00,45.1,44.8,0.00,ENE,73,0.8,3.1,99,0.00,,,0.00,WUHU216CR1000,2013-10-22 09:26:00,
2013-10-22 02:31:00,45.1,44.8,0.00,ENE,73,0.8,3.1,99,0.00,,,0.00,WUHU216CR1000,2013-10-22 09:31:00,
2013-10-22 02:36:00,45.0,44.7,0.00,East,86,0.5,3.1,99,0.00,,,0.00,WUHU216CR1000,2013-10-22 09:36:00,
2013-10-22 02:41:00,45.0,44.7,0.00,East,86,0.5,2.2,99,0.00,,,0.00,WUHU216CR1000,2013-10-22 09:41:00,
2013-10-22 02:46:00,45.0,44.7,0.00,East,86,0.5,2.2,99,0.00,,,0.00,WUHU216CR1000,2013-10-22 09:46:00,
2013-10-22 02:51:00,44.8,44.5,0.00,SSW,213,0.4,2.2,99,0.00,,,0.00,WUHU216CR1000,2013-10-22 09:51:00,
2013-10-22 02:56:00,44.8,44.5,0.00,SSW,213,0.4,1.5,99,0.00,,,0.00,WUHU216CR1000,2013-10-22 09:56:00,
2013-10-22 03:01:00,44.7,44.5,0.00,NNW,341,0.9,3.0,99,0.00,,,0.00,WUHU216CR1000,2013-10-22 10:01:00,
2013-10-22 03:06:00,44.7,44.5,0.00,NNW,341,0.9,3.0,99,0.00,,,0.00,WUHU216CR1000,2013-10-22 10:06:00,
2013-10-22 03:11:00,44.7,44.5,0.00,NNW,341,0.9,3.0,99,0.00,,,0.00,WUHU216CR1000,2013-10-22 10:11:00,
2013-10-22 03:16:00,44.3,44.0,0.00,NNW,333,1.3,3.0,99,0.00,,,0.00,WUHU216CR1000,2013-10-22 10:16:00,
2013-10-22 03:21:00,44.3,44.0,0.00,NNW,333,1.3,2.3,99,0.00,,,0.00,WUHU216CR1000,2013-10-22 10:21:00,
2013-10-22 03:26:00,44.3,44.0,0.00,NNW,333,1.3,2.3,99,0.00,,,0.00,WUHU216CR1000,2013-10-22 10:26:00,
2013-10-22 03:31:00,44.1,43.8,0.00,NW,318,0.7,2.3,99,0.00,,,0.00,WUHU216CR1000,2013-10-22 10:31:00,
2013-10-22 03:36:00,44.1,43.8,0.00,NW,318,0.7,2.2,99,0.00,,,0.00,WUHU216CR1000,2013-10-22 10:36:00,
2013-10-22 03:41:00,44.1,43.8,0.00,NW,318,0.7,2.2,99,0.00,,,0.00,WUHU216CR1000,2013-10-22 10:41:00,
2013-10-22 03:46:00,44.5,44.3,0.00,NNW,330,0.1,2.2,99,0.00,,,0.00,WUHU216CR1000,2013-10-22 10:46:00,
2013-10-22 03:51:00,44.5,44.3,0.00,NNW,330,0.1,1.0,99,0.00,,,0.00,WUHU216CR1000,2013-10-22 10:51:00,
2013-10-22 03:56:00,44.5,44.3,0.00,NNW,330,0.1,1.0,99,0.00,,,0.00,WUHU216CR1000,2013-10-22 10:56:00,
2013-10-22 04:01:00,44.6,44.4,0.00,SSW,208,0.9,2.0,99,0.00,,,0.00,WUHU216CR1000,2013-10-22 11:01:00,
2013-10-22 04:06:00,44.6,44.4,0.00,SSW,208,0.9,2.0,99,0.00,,,0.00,WUHU216CR1000,2013-10-22 11:06:00,
2013-10-22 04:11:00,44.6,44.4,0.00,SSW,208,0.9,2.0,99,0.00,,,0.00,WUHU216CR1000,2013-10-22 11:11:00,
2013-10-22 04:16:00,44.3,44.1,0.00,SSW,198,1.2,2.4,99,0.00,,,0.00,WUHU216CR1000,2013-10-22 11:16:00,
2013-10-22 04:21:00,44.3,44.1,0.00,SSW,198,1.2,2.4,99,0.00,,,0.00,WUHU216CR1000,2013-10-22 11:21:00,
2013-10-22 04:26:00,44.3,44.1,0.00,SSW,198,1.2,2.4,99,0.00,,,0.00,WUHU216CR1000,2013-10-22 11:26:00,
2013-10-22 04:31:00,44.1,43.8,0.00,SW,234,0.8,2.4,99,0.00,,,0.00,WUHU216CR1000,2013-10-22 11:31:00,
2013-10-22 04:36:00,44.1,43.8,0.00,SW,234,0.8,2.3,99,0.00,,,0.00,WUHU216CR1000,2013-10-22 11:36:00,
2013-10-22 04:41:00,44.1,43.8,0.00,SW,234,0.8,2.3,99,0.00,,,0.00,WUHU216CR1000,2013-10-22 11:41:00,
2013-10-22 04:46:00,43.9,43.7,0.00,SW,234,1.5,2.6,99,0.00,,,0.00,WUHU216CR1000,2013-10-22 11:46:00,
2013-10-22 04:51:00,43.9,43.7,0.00,SW,234,1.5,2.6,99,0.00,,,0.00,WUHU216CR1000,2013-10-22 11:51:00,
2013-10-22 04:56:00,43.9,43.7,0.00,SW,234,1.5,2.6,99,0.00,,,0.00,WUHU216CR1000,2013-10-22 11:56:00,
2013-10-22 05:01:00,43.6,43.4,0.00,West,263,0.7,2.6,99,0.00,,,0.00,WUHU216CR1000,2013-10-22 12:01:00,
2013-10-22 05:06:00,43.6,43.4,0.00,West,263,0.7,2.1,99,0.00,,,0.00,WUHU216CR1000,2013-10-22 12:06:00,
2013-10-22 05:11:00,43.6,43.4,0.00,West,263,0.7,2.1,99,0.00,,,0.00,WUHU216CR1000,2013-10-22 12:11:00,
2013-10-22 05:16:00,43.6,43.4,0.00,WSW,239,0.2,2.1,99,0.00,,,0.00,WUHU216CR1000,2013-10-22 12:16:00,
2013-10-22 05:21:00,43.6,43.4,0.00,WSW,239,0.2,1.3,99,0.00,,,0.00,WUHU216CR1000,2013-10-22 12:21:00,
2013-10-22 05:26:00,43.6,43.4,0.00,WSW,239,0.2,1.3,99,0.00,,,0.00,WUHU216CR1000,2013-10-22 12:26:00,
2013-10-22 05:31:00,43.6,43.4,0.00,SSW,211,1.1,2.0,99,0.00,,,0.00,WUHU216CR1000,2013-10-22 12:31:00,
2013-10-22 05:36:00,43.6,43.4,0.00,SSW,211,1.1,2.0,99,0.00,,,0.00,WUHU216CR1000,2013-10-22 12:36:00,
2013-10-22 05:41:00,43.6,43.4,0.00,SSW,211,1.1,2.0,99,0.00,,,0.00,WUHU216CR1000,2013-10-22 12:41:00,
2013-10-22 05:46:00,43.5,43.3,0.00,WSW,240,0.9,2.0,99,0.00,,,0.00,WUHU216CR1000,2013-10-22 12:46:00,
2013-10-22 05:51:00,43.5,43.3,0.00,WSW,240,0.9,2.0,99,0.00,,,0.00,WUHU216CR1000,2013-10-22 12:51:00,
2013-10-22 05:56:00,43.5,43.3,0.00,WSW,240,0.9,2.0,99,0.00,,,0.00,WUHU216CR1000,2013-10-22 12:56:00,
2013-10-22 06:01:00,43.2,43.0,0.00,West,261,0.4,2.0,99,0.00,,,0.00,WUHU216CR1000,2013-10-22 13:01:00,
2013-10-22 06:06:00,43.2,43.0,0.00,West,261,0.4,2.0,99,0.00,,,0.00,WUHU216CR1000,2013-10-22 13:06:00,
2013-10-22 06:11:00,43.2,43.0,0.00,West,261,0.4,2.0,99,0.00,,,0.00,WUHU216CR1000,2013-10-22 13:11:00,
2013-10-22 06:16:00,43.0,42.8,0.00,NW,307,0.5,2.1,99,0.00,,,0.00,WUHU216CR1000,2013-10-22 13:16:00,
2013-10-22 06:21:00,43.0,42.8,0.00,NW,307,0.5,2.1,99,0.00,,,0.00,WUHU216CR1000,2013-10-22 13:21:00,
2013-10-22 06:26:00,43.0,42.8,0.00,NW,307,0.5,2.1,99,0.00,,,0.00,WUHU216CR1000,2013-10-22 13:26:00,
2013-10-22 06:31:00,43.0,42.8,0.00,NW,308,0.5,2.1,99,0.00,,,0.00,WUHU216CR1000,2013-10-22 13:31:00,
2013-10-22 06:36:00,43.0,42.8,0.00,NW,308,0.5,2.0,99,0.00,,,0.00,WUHU216CR1000,2013-10-22 13:36:00,
2013-10-22 06:41:00,43.0,42.8,0.00,NW,308,0.5,2.0,99,0.00,,,0.00,WUHU216CR1000,2013-10-22 13:41:00,
2013-10-22 06:46:00,42.9,42.7,0.00,WSW,246,0.8,2.1,99,0.00,,,0.00,WUHU216CR1000,2013-10-22 13:46:00,
2013-10-22 06:51:00,42.9,42.7,0.00,WSW,246,0.8,2.1,99,0.00,,,0.00,WUHU216CR1000,2013-10-22 13:51:00,
2013-10-22 06:56:00,42.9,42.7,0.00,WSW,246,0.8,2.1,99,0.00,,,0.00,WUHU216CR1000,2013-10-22 13:56:00,
2013-10-22 07:02:00,42.6,42.4,0.00,SW,236,0.6,2.5,99,0.00,,,0.00,WUHU216CR1000,2013-10-22 14:02:00,
2013-10-22 07:07:00,42.6,42.4,0.00,SW,236,0.6,2.5,99,0.00,,,0.00,WUHU216CR1000,2013-10-22 14:07:00,
2013-10-22 07:12:00,42.6,42.4,0.00,SW,236,0.6,2.5,99,0.00,,,0.00,WUHU216CR1000,2013-10-22 14:12:00,
2013-10-22 07:17:00,42.4,42.2,0.00,WNW,303,0.6,2.5,99,0.00,,,0.00,WUHU216CR1000,2013-10-22 14:17:00,
2013-10-22 07:22:00,42.4,42.2,0.00,WNW,303,0.6,1.8,99,0.00,,,0.00,WUHU216CR1000,2013-10-22 14:22:00,
2013-10-22 07:27:00,42.4,42.2,0.00,WNW,303,0.6,1.8,99,0.00,,,0.00,WUHU216CR1000,2013-10-22 14:27:00,
2013-10-22 07:32:00,42.4,42.2,0.00,WSW,249,0.7,1.8,99,0.00,,,0.00,WUHU216CR1000,2013-10-22 14:32:00,
2013-10-22 07:37:00,42.4,42.2,0.00,WSW,249,0.7,1.8,99,0.00,,,0.00,WUHU216CR1000,2013-10-22 14:37:00,
2013-10-22 07:42:00,42.4,42.2,0.00,WSW,249,0.7,1.8,99,0.00,,,0.00,WUHU216CR1000,2013-10-22 14:42:00,
2013-10-22 07:47:00,42.6,42.4,0.00,SSW,204,1.5,2.5,99,0.00,,,0.00,WUHU216CR1000,2013-10-22 14:47:00,
2013-10-22 07:52:00,42.6,42.4,0.00,SSW,204,1.5,2.5,99,0.00,,,0.00,WUHU216CR1000,2013-10-22 14:52:00,
2013-10-22 07:57:00,42.6,42.4,0.00,SSW,204,1.5,2.5,99,0.00,,,0.00,WUHU216CR1000,2013-10-22 14:57:00,
2013-10-22 08:02:00,42.4,42.2,0.00,SW,220,1.2,2.5,99,0.00,,,0.00,WUHU216CR1000,2013-10-22 15:02:00,
2013-10-22 08:07:00,42.4,42.2,0.00,SW,220,1.2,2.3,99,0.00,,,0.00,WUHU216CR1000,2013-10-22 15:07:00,
2013-10-22 08:12:00,42.4,42.2,0.00,SW,220,1.2,2.3,99,0.00,,,0.00,WUHU216CR1000,2013-10-22 15:12:00,
2013-10-22 08:17:00,42.5,42.3,0.00,SW,214,1.5,2.6,99,0.00,,,0.00,WUHU216CR1000,2013-10-22 15:17:00,
2013-10-22 08:22:00,42.5,42.3,0.00,SW,214,1.5,2.6,99,0.00,,,0.00,WUHU216CR1000,2013-10-22 15:22:00,
2013-10-22 08:27:00,42.5,42.3,0.00,SW,214,1.5,2.6,99,0.00,,,0.00,WUHU216CR1000,2013-10-22 15:27:00,
2013-10-22 08:32:00,42.7,42.5,0.00,WSW,248,1.1,2.6,99,0.00,,,0.00,WUHU216CR1000,2013-10-22 15:32:00,
2013-10-22 08:37:00,42.7,42.5,0.00,WSW,248,1.1,2.2,99,0.00,,,0.00,WUHU216CR1000,2013-10-22 15:37:00,
2013-10-22 08:42:00,42.7,42.5,0.00,WSW,248,1.1,2.2,99,0.00,,,0.00,WUHU216CR1000,2013-10-22 15:42:00,
2013-10-22 08:47:00,42.8,42.6,0.00,West,259,0.8,2.2,99,0.00,,,0.00,WUHU216CR1000,2013-10-22 15:47:00,
2013-10-22 08:52:00,42.8,42.6,0.00,West,259,0.8,2.1,99,0.00,,,0.00,WUHU216CR1000,2013-10-22 15:52:00,
2013-10-22 08:57:00,42.8,42.6,0.00,West,259,0.8,2.1,99,0.00,,,0.00,WUHU216CR1000,2013-10-22 15:57:00,
2013-10-22 09:02:00,43.2,43.0,0.00,SW,233,0.6,2.1,99,0.00,,,0.00,WUHU216CR1000,2013-10-22 16:02:00,
2013-10-22 09:07:00,43.2,43.0,0.00,SW,233,0.6,2.1,99,0.00,,,0.00,WUHU216CR1000,2013-10-22 16:07:00,
2013-10-22 09:12:00,43.2,43.0,0.00,SW,233,0.6,2.1,99,0.00,,,0.00,WUHU216CR1000,2013-10-22 16:12:00,
2013-10-22 09:17:00,43.4,43.3,0.00,SW,228,0.9,2.2,99,0.00,,,0.00,WUHU216CR1000,2013-10-22 16:17:00,
2013-10-22 09:22:00,43.4,43.3,0.00,SW,228,0.9,2.2,99,0.00,,,0.00,WUHU216CR1000,2013-10-22 16:22:00,
2013-10-22 09:27:00,43.4,43.3,0.00,SW,228,0.9,2.2,99,0.00,,,0.00,WUHU216CR1000,2013-10-22 16:27:00,
2013-10-22 09:32:00,44.0,43.8,0.00,WSW,247,0.9,2.4,99,0.00,,,0.00,WUHU216CR1000,2013-10-22 16:32:00,
2013-10-22 09:37:00,44.0,43.8,0.00,WSW,247,0.9,2.4,99,0.00,,,0.00,WUHU216CR1000,2013-10-22 16:37:00,
2013-10-22 09:42:00,44.0,43.8,0.00,WSW,247,0.9,2.4,99,0.00,,,0.00,WUHU216CR1000,2013-10-22 16:42:00,
2013-10-22 09:47:00,44.6,44.5,0.00,SSW,201,0.6,2.4,99,0.00,,,0.00,WUHU216CR1000,2013-10-22 16:47:00,
2013-10-22 09:52:00,44.6,44.5,0.00,SSW,201,0.6,2.4,99,0.00,,,0.00,WUHU216CR1000,2013-10-22 16:52:00,
2013-10-22 09:57:00,44.6,44.5,0.00,SSW,201,0.6,2.4,99,0.00,,,0.00,WUHU216CR1000,2013-10-22 16:57:00,
2013-10-22 10:02:00,45.0,44.9,0.00,SSW,212,1.6,3.5,99,0.00,,,0.00,WUHU216CR1000,2013-10-22 17:02:00,
2013-10-22 10:07:00,45.0,44.9,0.00,SSW,212,1.6,3.5,99,0.00,,,0.00,WUHU216CR1000,2013-10-22 17:07:00,
2013-10-22 10:12:00,45.0,44.9,0.00,SSW,212,1.6,3.5,99,0.00,,,0.00,WUHU216CR1000,2013-10-22 17:12:00,
2013-10-22 10:17:00,46.1,46.0,0.00,SW,216,0.9,3.5,100,0.00,,,0.00,WUHU216CR1000,2013-10-22 17:17:00,
2013-10-22 10:22:00,46.1,46.0,0.00,SW,216,0.9,2.5,100,0.00,,,0.00,WUHU216CR1000,2013-10-22 17:22:00,
2013-10-22 10:27:00,46.1,46.0,0.00,SW,216,0.9,2.5,100,0.00,,,0.00,WUHU216CR1000,2013-10-22 17:27:00,
2013-10-22 10:32:00,47.6,47.4,0.00,ENE,72,1.0,3.0,99,0.00,,,0.00,WUHU216CR1000,2013-10-22 17:32:00,
2013-10-22 10:37:00,47.6,47.4,0.00,ENE,72,1.0,3.0,99,0.00,,,0.00,WUHU216CR1000,2013-10-22 17:37:00,
2013-10-22 10:42:00,47.6,47.4,0.00,ENE,72,1.0,3.0,99,0.00,,,0.00,WUHU216CR1000,2013-10-22 17:42:00,
2013-10-22 10:47:00,48.9,48.6,0.00,North,356,1.0,3.1,99,0.00,,,0.00,WUHU216CR1000,2013-10-22 17:47:00,
2013-10-22 10:52:00,48.9,48.6,0.00,North,356,1.0,3.1,99,0.00,,,0.00,WUHU216CR1000,2013-10-22 17:52:00,
2013-10-22 10:57:00,48.9,48.6,0.00,North,356,1.0,3.1,99,0.00,,,0.00,WUHU216CR1000,2013-10-22 17:57:00,
2013-10-22 11:02:00,51.4,49.1,0.00,ENE,64,1.0,3.1,92,0.00,,,0.00,WUHU216CR1000,2013-10-22 18:02:00,
2013-10-22 11:07:00,51.4,49.1,0.00,ENE,64,1.0,3.1,92,0.00,,,0.00,WUHU216CR1000,2013-10-22 18:07:00,
2013-10-22 11:12:00,51.4,49.1,0.00,ENE,64,1.0,3.1,92,0.00,,,0.00,WUHU216CR1000,2013-10-22 18:12:00,
2013-10-22 11:17:00,54.5,48.0,0.00,ESE,112,0.7,3.4,79,0.00,,,0.00,WUHU216CR1000,2013-10-22 18:17:00,
2013-10-22 11:22:00,54.5,48.0,0.00,ESE,112,0.7,3.4,79,0.00,,,0.00,WUHU216CR1000,2013-10-22 18:22:00,
2013-10-22 11:27:00,54.5,48.0,0.00,ESE,112,0.7,3.4,79,0.00,,,0.00,WUHU216CR1000,2013-10-22 18:27:00,
2013-10-22 11:32:00,57.5,47.4,0.00,SSE,156,1.4,3.8,69,0.00,,,0.00,WUHU216CR1000,2013-10-22 18:32:00,
2013-10-22 11:37:00,57.5,47.4,0.00,SSE,156,1.4,3.8,69,0.00,,,0.00,WUHU216CR1000,2013-10-22 18:37:00,
2013-10-22 11:42:00,57.5,47.4,0.00,SSE,156,1.4,3.8,69,0.00,,,0.00,WUHU216CR1000,2013-10-22 18:42:00,
2013-10-22 11:47:00,59.8,47.1,0.00,SE,127,1.6,4.4,63,0.00,,,0.00,WUHU216CR1000,2013-10-22 18:47:00,
2013-10-22 11:52:00,59.8,47.1,0.00,SE,127,1.6,4.4,63,0.00,,,0.00,WUHU216CR1000,2013-10-22 18:52:00,
2013-10-22 11:57:00,59.8,47.1,0.00,SE,127,1.6,4.4,63,0.00,,,0.00,WUHU216CR1000,2013-10-22 18:57:00,
2013-10-22 12:02:00,61.5,47.4,0.00,East,93,2.0,4.9,60,0.00,,,0.00,WUHU216CR1000,2013-10-22 19:02:00,
2013-10-22 12:07:00,61.5,47.4,0.00,East,93,2.0,4.9,60,0.00,,,0.00,WUHU216CR1000,2013-10-22 19:07:00,
2013-10-22 12:12:00,61.5,47.4,0.00,East,93,2.0,4.9,60,0.00,,,0.00,WUHU216CR1000,2013-10-22 19:12:00,
2013-10-22 12:17:00,63.1,47.4,0.00,East,87,1.6,4.9,57,0.00,,,0.00,WUHU216CR1000,2013-10-22 19:17:00,
2013-10-22 12:22:00,63.1,47.4,0.00,East,87,1.6,4.5,57,0.00,,,0.00,WUHU216CR1000,2013-10-22 19:22:00,
2013-10-22 12:27:00,63.1,47.4,0.00,East,87,1.6,4.5,57,0.00,,,0.00,WUHU216CR1000,2013-10-22 19:27:00,
2013-10-22 12:32:00,64.8,47.7,0.00,East,91,1.7,4.5,54,0.00,,,0.00,WUHU216CR1000,2013-10-22 19:32:00,
2013-10-22 12:37:00,64.8,47.7,0.00,East,91,1.7,4.1,54,0.00,,,0.00,WUHU216CR1000,2013-10-22 19:37:00,
2013-10-22 12:42:00,64.8,47.7,0.00,East,91,1.7,4.1,54,0.00,,,0.00,WUHU216CR1000,2013-10-22 19:42:00,
2013-10-22 12:47:00,67.5,48.4,0.00,SE,145,1.9,5.0,50,0.00,,,0.00,WUHU216CR1000,2013-10-22 19:47:00,
2013-10-22 12:52:00,67.5,48.4,0.00,SE,145,1.9,5.0,50,0.00,,,0.00,WUHU216CR1000,2013-10-22 19:52:00,
2013-10-22 12:57:00,67.5,48.4,0.00,SE,145,1.9,5.0,50,0.00,,,0.00,WUHU216CR1000,2013-10-22 19:57:00,
2013-10-22 13:02:00,68.7,48.9,0.00,ESE,113,2.6,5.7,49,0.00,,,0.00,WUHU216CR1000,2013-10-22 20:02:00,
2013-10-22 13:07:00,68.7,48.9,0.00,ESE,113,2.6,5.7,49,0.00,,,0.00,WUHU216CR1000,2013-10-22 20:07:00,
2013-10-22 13:12:00,68.7,48.9,0.00,ESE,113,2.6,5.7,49,0.00,,,0.00,WUHU216CR1000,2013-10-22 20:12:00,
2013-10-22 13:17:00,69.9,49.4,0.00,East,97,2.5,7.1,48,0.00,,,0.00,WUHU216CR1000,2013-10-22 20:17:00,
2013-10-22 13:22:00,69.9,49.4,0.00,East,97,2.5,7.1,48,0.00,,,0.00,WUHU216CR1000,2013-10-22 20:22:00,
2013-10-22 13:27:00,69.9,49.4,0.00,East,97,2.5,7.1,48,0.00,,,0.00,WUHU216CR1000,2013-10-22 20:27:00,
2013-10-22 13:32:00,71.7,49.2,0.00,SE,126,2.4,7.1,45,0.00,,,0.00,WUHU216CR1000,2013-10-22 20:32:00,
2013-10-22 13:37:00,71.7,49.2,0.00,SE,126,2.4,5.5,45,0.00,,,0.00,WUHU216CR1000,2013-10-22 20:37:00,
2013-10-22 13:42:00,71.7,49.2,0.00,SE,126,2.4,5.5,45,0.00,,,0.00,WUHU216CR1000,2013-10-22 20:42:00,
2013-10-22 13:47:00,72.7,48.9,0.00,ESE,110,2.5,6.7,43,0.00,,,0.00,WUHU216CR1000,2013-10-22 20:47:00,
2013-10-22 13:52:00,72.7,48.9,0.00,ESE,110,2.5,6.7,43,0.00,,,0.00,WUHU216CR1000,2013-10-22 20:52:00,
2013-10-22 13:57:00,72.7,48.9,0.00,ESE,110,2.5,6.7,43,0.00,,,0.00,WUHU216CR1000,2013-10-22 20:57:00,
2013-10-22 14:02:00,74.1,49.0,0.00,SE,125,2.8,6.7,41,0.00,,,0.00,WUHU216CR1000,2013-10-22 21:02:00,
2013-10-22 14:07:00,74.1,49.0,0.00,SE,125,2.8,5.8,41,0.00,,,0.00,WUHU216CR1000,2013-10-22 21:07:00,
2013-10-22 14:12:00,74.1,49.0,0.00,SE,125,2.8,5.8,41,0.00,,,0.00,WUHU216CR1000,2013-10-22 21:12:00,
2013-10-22 14:17:00,75.8,48.7,0.00,SSE,147,2.3,6.1,38,0.00,,,0.00,WUHU216CR1000,2013-10-22 21:17:00,
2013-10-22 14:22:00,75.8,48.7,0.00,SSE,147,2.3,6.1,38,0.00,,,0.00,WUHU216CR1000,2013-10-22 21:22:00,
2013-10-22 14:27:00,75.8,48.7,0.00,SSE,147,2.3,6.1,38,0.00,,,0.00,WUHU216CR1000,2013-10-22 21:27:00,
2013-10-22 14:32:00,77.6,48.5,0.00,ESE,119,2.7,6.1,36,0.00,,,0.00,WUHU216CR1000,2013-10-22 21:32:00,
2013-10-22 14:37:00,77.6,48.5,0.00,ESE,119,2.7,5.3,36,0.00,,,0.00,WUHU216CR1000,2013-10-22 21:37:00,
2013-10-22 14:42:00,77.6,48.5,0.00,ESE,119,2.7,5.3,36,0.00,,,0.00,WUHU216CR1000,2013-10-22 21:42:00,
2013-10-22 14:47:00,79.0,48.3,0.00,South,170,2.1,5.3,34,0.00,,,0.00,WUHU216CR1000,2013-10-22 21:47:00,
2013-10-22 14:52:00,79.0,48.3,0.00,South,170,2.1,5.0,34,0.00,,,0.00,WUHU216CR1000,2013-10-22 21:52:00,
2013-10-22 14:57:00,79.0,48.3,0.00,South,170,2.1,5.0,34,0.00,,,0.00,WUHU216CR1000,2013-10-22 21:57:00,
2013-10-22 15:02:00,79.3,48.6,0.00,SSE,147,3.1,6.7,34,0.00,,,0.00,WUHU216CR1000,2013-10-22 22:02:00,
2013-10-22 15:07:00,79.3,48.6,0.00,SSE,147,3.1,6.7,34,0.00,,,0.00,WUHU216CR1000,2013-10-22 22:07:00,
2013-10-22 15:12:00,79.3,48.6,0.00,SSE,147,3.1,6.7,34,0.00,,,0.00,WUHU216CR1000,2013-10-22 22:12:00,
2013-10-22 15:17:00,80.3,48.7,0.00,South,174,3.5,7.8,33,0.00,,,0.00,WUHU216CR1000,2013-10-22 22:17:00,
2013-10-22 15:22:00,80.3,48.7,0.00,South,174,3.5,7.8,33,0.00,,,0.00,WUHU216CR1000,2013-10-22 22:22:00,
2013-10-22 15:27:00,80.3,48.7,0.00,South,174,3.5,7.8,33,0.00,,,0.00,WUHU216CR1000,2013-10-22 22:27:00,
2013-10-22 15:32:00,80.0,49.4,0.00,SSE,160,3.3,7.8,34,0.00,,,0.00,WUHU216CR1000,2013-10-22 22:32:00,
2013-10-22 15:37:00,80.0,49.4,0.00,SSE,160,3.3,6.8,34,0.00,,,0.00,WUHU216CR1000,2013-10-22 22:37:00,
2013-10-22 15:42:00,80.0,49.4,0.00,SSE,160,3.3,6.8,34,0.00,,,0.00,WUHU216CR1000,2013-10-22 22:42:00,
2013-10-22 15:47:00,79.4,49.6,0.00,ESE,121,4.0,8.0,35,0.00,,,0.00,WUHU216CR1000,2013-10-22 22:47:00,
2013-10-22 15:52:00,79.4,49.6,0.00,ESE,121,4.0,8.0,35,0.00,,,0.00,WUHU216CR1000,2013-10-22 22:52:00,
2013-10-22 15:57:00,79.4,49.6,0.00,ESE,121,4.0,8.0,35,0.00,,,0.00,WUHU216CR1000,2013-10-22 22:57:00,
2013-10-22 16:02:00,78.5,48.2,0.00,SE,133,3.2,8.0,35,0.00,,,0.00,WUHU216CR1000,2013-10-22 23:02:00,
2013-10-22 16:07:00,78.5,48.2,0.00,SE,133,3.2,7.5,35,0.00,,,0.00,WUHU216CR1000,2013-10-22 23:07:00,
2013-10-22 16:12:00,78.5,48.2,0.00,SE,133,3.2,7.5,35,0.00,,,0.00,WUHU216CR1000,2013-10-22 23:12:00,
2013-10-22 16:17:00,77.6,47.5,0.00,ESE,113,3.8,8.1,35,0.00,,,0.00,WUHU216CR1000,2013-10-22 23:17:00,
2013-10-22 16:22:00,77.6,47.5,0.00,ESE,113,3.8,8.1,35,0.00,,,0.00,WUHU216CR1000,2013-10-22 23:22:00,
2013-10-22 16:27:00,77.6,47.5,0.00,ESE,113,3.8,8.1,35,0.00,,,0.00,WUHU216CR1000,2013-10-22 23:27:00,
2013-10-22 16:32:00,77.0,46.7,0.00,ESE,116,3.6,8.1,34,0.00,,,0.00,WUHU216CR1000,2013-10-22 23:32:00,
2013-10-22 16:37:00,77.0,46.7,0.00,ESE,116,3.6,8.1,34,0.00,,,0.00,WUHU216CR1000,2013-10-22 23:37:00,
2013-10-22 16:42:00,77.0,46.7,0.00,ESE,116,3.6,8.1,34,0.00,,,0.00,WUHU216CR1000,2013-10-22 23:42:00,
2013-10-22 16:47:00,76.8,46.7,0.00,ESE,120,3.4,8.1,34,0.00,,,0.00,WUHU216CR1000,2013-10-22 23:47:00,
2013-10-22 16:52:00,76.8,46.7,0.00,ESE,120,3.4,6.8,34,0.00,,,0.00,WUHU216CR1000,2013-10-22 23:52:00,
2013-10-22 16:57:00,76.8,46.7,0.00,ESE,120,3.4,6.8,34,0.00,,,0.00,WUHU216CR1000,2013-10-22 23:57:00,
2013-10-22 17:02:00,76.2,47.8,0.00,ESE,114,3.0,6.8,37,0.00,,,0.00,WUHU216CR1000,2013-10-23 00:02:00,
2013-10-22 17:07:00,76.2,47.8,0.00,ESE,114,3.0,5.6,37,0.00,,,0.00,WUHU216CR1000,2013-10-23 00:07:00,
2013-10-22 17:12:00,76.2,47.8,0.00,ESE,114,3.0,5.6,37,0.00,,,0.00,WUHU216CR1000,2013-10-23 00:12:00,
2013-10-22 17:17:00,74.6,49.3,0.00,ESE,114,3.3,6.0,41,0.00,,,0.00,WUHU216CR1000,2013-10-23 00:17:00,
2013-10-22 17:22:00,74.6,49.3,0.00,ESE,114,3.3,6.0,41,0.00,,,0.00,WUHU216CR1000,2013-10-23 00:22:00,
2013-10-22 17:27:00,74.6,49.3,0.00,ESE,114,3.3,6.0,41,0.00,,,0.00,WUHU216CR1000,2013-10-23 00:27:00,
2013-10-22 17:32:00,73.5,50.0,0.00,East,98,2.5,6.0,44,0.00,,,0.00,WUHU216CR1000,2013-10-23 00:32:00,
2013-10-22 17:37:00,73.5,50.0,0.00,East,98,2.5,5.0,44,0.00,,,0.00,WUHU216CR1000,2013-10-23 00:37:00,
2013-10-22 17:42:00,73.5,50.0,0.00,East,98,2.5,5.0,44,0.00,,,0.00,WUHU216CR1000,2013-10-23 00:42:00,
2013-10-22 17:47:00,70.5,50.3,0.00,East,91,2.5,5.4,49,0.00,,,0.00,WUHU216CR1000,2013-10-23 00:47:00,
2013-10-22 17:52:00,70.5,50.3,0.00,East,91,2.5,5.4,49,0.00,,,0.00,WUHU216CR1000,2013-10-23 00:52:00,
2013-10-22 17:57:00,70.5,50.3,0.00,East,91,2.5,5.4,49,0.00,,,0.00,WUHU216CR1000,2013-10-23 00:57:00,
2013-10-22 18:02:00,66.6,49.9,0.00,East,96,3.5,6.8,55,0.00,,,0.00,WUHU216CR1000,2013-10-23 01:02:00,
2013-10-22 18:07:00,66.6,49.9,0.00,East,96,3.5,6.8,55,0.00,,,0.00,WUHU216CR1000,2013-10-23 01:07:00,
2013-10-22 18:12:00,66.6,49.9,0.00,East,96,3.5,6.8,55,0.00,,,0.00,WUHU216CR1000,2013-10-23 01:12:00,
2013-10-22 18:17:00,63.8,49.5,0.00,East,95,3.7,6.9,60,0.00,,,0.00,WUHU216CR1000,2013-10-23 01:17:00,
2013-10-22 18:22:00,63.8,49.5,0.00,East,95,3.7,6.9,60,0.00,,,0.00,WUHU216CR1000,2013-10-23 01:22:00,
2013-10-22 18:27:00,63.8,49.5,0.00,East,95,3.7,6.9,60,0.00,,,0.00,WUHU216CR1000,2013-10-23 01:27:00,
2013-10-22 18:32:00,61.7,49.1,0.00,ESE,103,3.7,7.3,63,0.00,,,0.00,WUHU216CR1000,2013-10-23 01:32:00,
2013-10-22 18:37:00,61.7,49.1,0.00,ESE,103,3.7,7.3,63,0.00,,,0.00,WUHU216CR1000,2013-10-23 01:37:00,
2013-10-22 18:42:00,61.7,49.1,0.00,ESE,103,3.7,7.3,63,0.00,,,0.00,WUHU216CR1000,2013-10-23 01:42:00,
2013-10-22 18:47:00,60.2,48.8,0.00,East,98,3.1,7.3,66,0.00,,,0.00,WUHU216CR1000,2013-10-23 01:47:00,
2013-10-22 18:52:00,60.2,48.8,0.00,East,98,3.1,6.8,66,0.00,,,0.00,WUHU216CR1000,2013-10-23 01:52:00,
2013-10-22 18:57:00,60.2,48.8,0.00,East,98,3.1,6.8,66,0.00,,,0.00,WUHU216CR1000,2013-10-23 01:57:00,
2013-10-22 19:02:00,58.6,48.4,0.00,ESE,106,3.7,6.8,69,0.00,,,0.00,WUHU216CR1000,2013-10-23 02:02:00,
2013-10-22 19:07:00,58.6,48.4,0.00,ESE,106,3.7,6.8,69,0.00,,,0.00,WUHU216CR1000,2013-10-23 02:07:00,
2013-10-22 19:12:00,58.6,48.4,0.00,ESE,106,3.7,6.8,69,0.00,,,0.00,WUHU216CR1000,2013-10-23 02:12:00,
2013-10-22 19:17:00,56.7,47.8,0.00,East,100,2.3,6.8,72,0.00,,,0.00,WUHU216CR1000,2013-10-23 02:17:00,
2013-10-22 19:22:00,56.7,47.8,0.00,East,100,2.3,5.6,72,0.00,,,0.00,WUHU216CR1000,2013-10-23 02:22:00,
2013-10-22 19:27:00,56.7,47.8,0.00,East,100,2.3,5.6,72,0.00,,,0.00,WUHU216CR1000,2013-10-23 02:27:00,
2013-10-22 19:32:00,54.9,47.5,0.00,East,97,3.4,5.9,76,0.00,,,0.00,WUHU216CR1000,2013-10-23 02:32:00,
2013-10-22 19:37:00,54.9,47.5,0.00,East,97,3.4,5.9,76,0.00,,,0.00,WUHU216CR1000,2013-10-23 02:37:00,
2013-10-22 19:42:00,54.9,47.5,0.00,East,97,3.4,5.9,76,0.00,,,0.00,WUHU216CR1000,2013-10-23 02:42:00,
2013-10-22 19:47:00,53.6,47.3,0.00,East,98,3.3,6.1,79,0.00,,,0.00,WUHU216CR1000,2013-10-23 02:47:00,
2013-10-22 19:52:00,53.6,47.3,0.00,East,98,3.3,6.1,79,0.00,,,0.00,WUHU216CR1000,2013-10-23 02:52:00,
2013-10-22 19:57:00,53.6,47.3,0.00,East,98,3.3,6.1,79,0.00,,,0.00,WUHU216CR1000,2013-10-23 02:57:00,
2013-10-22 20:02:00,52.4,47.2,0.00,East,100,2.9,6.1,82,0.00,,,0.00,WUHU216CR1000,2013-10-23 03:02:00,
2013-10-22 20:07:00,52.4,47.2,0.00,East,100,2.9,5.4,82,0.00,,,0.00,WUHU216CR1000,2013-10-23 03:07:00,
2013-10-22 20:12:00,52.4,47.2,0.00,East,100,2.9,5.4,82,0.00,,,0.00,WUHU216CR1000,2013-10-23 03:12:00,
2013-10-22 20:17:00,51.7,47.1,0.00,East,98,2.2,5.4,84,0.00,,,0.00,WUHU216CR1000,2013-10-23 03:17:00,
2013-10-22 20:22:00,51.7,47.1,0.00,East,98,2.2,4.5,84,0.00,,,0.00,WUHU216CR1000,2013-10-23 03:22:00,
2013-10-22 20:27:00,51.7,47.1,0.00,East,98,2.2,4.5,84,0.00,,,0.00,WUHU216CR1000,2013-10-23 03:27:00,
2013-10-22 20:32:00,51.1,46.9,0.00,East,93,1.7,4.5,86,0.00,,,0.00,WUHU216CR1000,2013-10-23 03:32:00,
2013-10-22 20:37:00,51.1,46.9,0.00,East,93,1.7,3.8,86,0.00,,,0.00,WUHU216CR1000,2013-10-23 03:37:00,
2013-10-22 20:42:00,51.1,46.9,0.00,East,93,1.7,3.8,86,0.00,,,0.00,WUHU216CR1000,2013-10-23 03:42:00,
2013-10-22 20:47:00,50.2,46.5,0.00,ENE,73,1.3,3.8,87,0.00,,,0.00,WUHU216CR1000,2013-10-23 03:47:00,
2013-10-22 20:52:00,50.2,46.5,0.00,ENE,73,1.3,2.9,87,0.00,,,0.00,WUHU216CR1000,2013-10-23 03:52:00,
2013-10-22 20:57:00,50.2,46.5,0.00,ENE,73,1.3,2.9,87,0.00,,,0.00,WUHU216CR1000,2013-10-23 03:57:00,
2013-10-22 21:01:00,50.2,46.5,0.00,ENE,73,1.3,2.9,87,0.00,,,0.00,WUHU216CR1000,2013-10-23 04:01:00,
2013-10-22 21:02:00,49.5,46.3,0.00,ENE,64,1.1,2.9,89,0.00,,,0.00,WUHU216CR1000,2013-10-23 04:02:00,
2013-10-22 21:07:00,49.5,46.3,0.00,ENE,64,1.1,2.3,89,0.00,,,0.00,WUHU216CR1000,2013-10-23 04:07:00,
2013-10-22 21:12:00,49.5,46.3,0.00,ENE,64,1.1,2.3,89,0.00,,,0.00,WUHU216CR1000,2013-10-23 04:12:00,
2013-10-22 21:17:00,48.8,46.1,0.00,ENE,67,1.0,2.3,90,0.00,,,0.00,WUHU216CR1000,2013-10-23 04:17:00,
2013-10-22 21:21:00,48.8,46.1,0.00,ENE,67,1.0,2.2,90,0.00,,,0.00,WUHU216CR1000,2013-10-23 04:21:00,
2013-10-22 21:26:00,48.8,46.1,0.00,ENE,67,1.0,2.2,90,0.00,,,0.00,WUHU216CR1000,2013-10-23 04:26:00,
2013-10-22 21:31:00,48.4,46.1,0.00,ENE,61,0.8,2.7,92,0.00,,,0.00,WUHU216CR1000,2013-10-23 04:31:00,
2013-10-22 21:36:00,48.4,46.1,0.00,ENE,61,0.8,2.7,92,0.00,,,0.00,WUHU216CR1000,2013-10-23 04:36:00,
2013-10-22 21:42:00,48.4,46.1,0.00,ENE,61,0.8,2.7,92,0.00,,,0.00,WUHU216CR1000,2013-10-23 04:42:00,
2013-10-22 21:46:00,48.1,45.9,0.00,ENE,66,0.5,2.7,92,0.00,,,0.00,WUHU216CR1000,2013-10-23 04:46:00,
2013-10-22 21:51:00,48.1,45.9,0.00,ENE,66,0.5,1.5,92,0.00,,,0.00,WUHU216CR1000,2013-10-23 04:51:00,
2013-10-22 21:56:00,48.1,45.9,0.00,ENE,66,0.5,1.5,92,0.00,,,0.00,WUHU216CR1000,2013-10-23 04:56:00,
2013-10-22 22:01:00,47.7,45.5,0.00,ENE,65,0.8,1.8,92,0.00,,,0.00,WUHU216CR1000,2013-10-23 05:01:00,
2013-10-22 22:06:00,47.7,45.5,0.00,ENE,65,0.8,1.8,92,0.00,,,0.00,WUHU216CR1000,2013-10-23 05:06:00,
2013-10-22 22:11:00,47.7,45.5,0.00,ENE,65,0.8,1.8,92,0.00,,,0.00,WUHU216CR1000,2013-10-23 05:11:00,
2013-10-22 22:16:00,46.9,44.8,0.00,ENE,70,0.3,1.8,92,0.00,,,0.00,WUHU216CR1000,2013-10-23 05:16:00,
2013-10-22 22:21:00,46.9,44.8,0.00,ENE,70,0.3,1.5,92,0.00,,,0.00,WUHU216CR1000,2013-10-23 05:21:00,
2013-10-22 22:26:00,46.9,44.8,0.00,ENE,70,0.3,1.5,92,0.00,,,0.00,WUHU216CR1000,2013-10-23 05:26:00,
2013-10-22 22:31:00,45.7,43.5,0.00,North,10,0.2,1.5,92,0.00,,,0.00,WUHU216CR1000,2013-10-23 05:31:00,
2013-10-22 22:36:00,45.7,43.5,0.00,North,10,0.2,1.1,92,0.00,,,0.00,WUHU216CR1000,2013-10-23 05:36:00,
2013-10-22 22:41:00,45.7,43.5,0.00,North,10,0.2,1.1,92,0.00,,,0.00,WUHU216CR1000,2013-10-23 05:41:00,
2013-10-22 22:46:00,45.9,44.0,0.00,ENE,68,1.1,1.8,93,0.00,,,0.00,WUHU216CR1000,2013-10-23 05:46:00,
2013-10-22 22:51:00,45.9,44.0,0.00,ENE,68,1.1,1.8,93,0.00,,,0.00,WUHU216CR1000,2013-10-23 05:51:00,
2013-10-22 22:57:00,45.9,44.0,0.00,ENE,68,1.1,1.8,93,0.00,,,0.00,WUHU216CR1000,2013-10-23 05:57:00,
2013-10-22 23:02:00,45.9,44.6,0.00,ENE,70,0.8,1.8,95,0.00,,,0.00,WUHU216CR1000,2013-10-23 06:02:00,
2013-10-22 23:07:00,45.9,44.6,0.00,ENE,70,0.8,1.8,95,0.00,,,0.00,WUHU216CR1000,2013-10-23 06:07:00,
2013-10-22 23:12:00,45.9,44.6,0.00,ENE,70,0.8,1.8,95,0.00,,,0.00,WUHU216CR1000,2013-10-23 06:12:00,
2013-10-22 23:17:00,45.6,44.7,0.00,ENE,73,1.1,2.4,97,0.00,,,0.00,WUHU216CR1000,2013-10-23 06:17:00,
2013-10-22 23:22:00,45.6,44.7,0.00,ENE,73,1.1,2.4,97,0.00,,,0.00,WUHU216CR1000,2013-10-23 06:22:00,
2013-10-22 23:27:00,45.6,44.7,0.00,ENE,73,1.1,2.4,97,0.00,,,0.00,WUHU216CR1000,2013-10-23 06:27:00,
2013-10-22 23:32:00,45.3,44.7,0.00,ENE,73,0.6,2.4,98,0.00,,,0.00,WUHU216CR1000,2013-10-23 06:32:00,
2013-10-22 23:37:00,45.3,44.7,0.00,ENE,73,0.6,1.8,98,0.00,,,0.00,WUHU216CR1000,2013-10-23 06:37:00,
2013-10-22 23:42:00,45.3,44.7,0.00,ENE,73,0.6,1.8,98,0.00,,,0.00,WUHU216CR1000,2013-10-23 06:42:00,
2013-10-22 23:47:00,45.1,44.6,0.00,North,0,0.0,1.8,98,0.00,,,0.00,WUHU216CR1000,2013-10-23 06:47:00,
2013-10-22 23:52:00,45.1,44.6,0.00,North,0,0.0,0.0,98,0.00,,,0.00,WUHU216CR1000,2013-10-23 06:52:00,
2013-10-22 23:57:00,45.1,44.6,0.00,North,0,0.0,0.0,98,0.00,,,0.00,WUHU216CR1000,2013-10-23 06:57:00,